Voltar ao catálogo

STARLINK-32931

AtivoComunicaçõesVLEO
NORAD 63199·PAYLOAD·🇺🇸 United States

Lançado Mar 13, 2025 de Cape Canaveral Space Force Station

Loading…

Próximas Passagens (próximas 24 horas)

TLE

AtualizadoSource: CelesTrak SupGP

Época: Sep 14, 2026, 21:18 UTC

1 63199C 25048S   26257.88798611  .00030604  00000+0  11088-2 0  2576
2 63199  43.0004  96.8090 0000953 250.8319 259.5445 15.27553774    19

Acompanhe STARLINK-32931 em tempo real com AllMySat

Download on the App Store